Ord, NE

11:47 PM CDT on September 30, 2016 (GMT -0500)
Sharp

Weather History for KODX - November, 2013

Change the Weather History Date:

Tuesday, November 5, 2013

  Actual Average Record
Temperature  
Mean Temperature 30 °F 41 °F  
Max Temperature 35 °F 54 °F 75 °F (2001)
Min Temperature 24 °F 29 °F 17 °F (2010)
Degree Days  
Heating Degree Days 35 24  
Month to date heating degree days 123 114  
Since 1 July heating degree days 697 734  
Cooling Degree Days 0 0  
Month to date cooling degree days 0 0  
Year to date cooling degree days 907 845  
Moisture  
Dew Point 29 °F    
Average Humidity 89    
Maximum Humidity 96    
Minimum Humidity 82    
Precipitation  
Precipitation 0.27 in 0.05 in 2.90 in (1918)
Month to date precipitation 0.27 0.24  
Year to date precipitation 24.12 23.52  
Sea Level Pressure  
Sea Level Pressure 30.08 in    
Wind  
Wind Speed 9 mph (North)    
Max Wind Speed 21 mph    
Max Gust Speed 24 mph    
Visibility 4 miles    
Events Fog , Rain , Snow    
T = Trace of Precipitation, MM = Missing Value Source: NWS Daily Summary

Daily Weather History Graph

Daily Weather History Graph

Search for Another Location

Airport or City:

Trip Planner

Search our weather history database for the weather conditions in past years. The results will help you decide how hot, cold, wet, or windy it might be!

Date:

Astronomy

Nov. 05, 2013 Rise Set
Actual Time 7:12 AM CST 5:25 PM CST
Civil Twilight 6:43 AM CST 5:54 PM CST
Nautical Twilight 6:10 AM CST 6:27 PM CST
Astronomical Twilight 5:38 AM CST 6:59 PM CST
Moon 9:30 AM CST (11/5) 7:27 PM CST (11/5)
Length of Visible Light 11h 10m
Length of Day
10h 12m
Waxing Crescent, 7% of the Moon is Illuminated
Nov 5
Waxing Crescent
Nov 9
First Quarter
Nov 17
Full
Nov 25
Last Quarter
Dec 2
New

Hourly Weather History & Observations

Time (CST) Temp. Windchill Dew Point Humidity Pressure Visibility Wind Dir Wind Speed Gust Speed Precip Events Conditions
12:53 AM 26.1 °F - 23.0 °F 88% 30.16 in 9.0 mi Calm Calm - N/A   Clear
1:53 AM 25.0 °F - 21.9 °F 88% 30.15 in 10.0 mi Calm Calm - N/A   Clear
2:53 AM 25.0 °F - 21.9 °F 88% 30.14 in 10.0 mi Calm Calm - N/A   Scattered Clouds
3:53 AM 26.1 °F - 23.0 °F 88% 30.13 in 7.0 mi Calm Calm - N/A   Partly Cloudy
4:53 AM 26.1 °F 21.9 °F 23.0 °F 88% 30.12 in 10.0 mi NW 3.5 mph - N/A   Clear
5:53 AM 28.9 °F - 26.1 °F 89% 30.12 in 10.0 mi Calm Calm - N/A   Partly Cloudy
6:53 AM 34.0 °F 31.0 °F 28.9 °F 82% 30.14 in 8.0 mi South 3.5 mph - 0.00 in Snow Light Snow
7:53 AM 35.1 °F 31.0 °F 30.0 °F 82% 30.17 in 4.0 mi ENE 4.6 mph - 0.00 in Snow Light Snow
7:58 AM 35.6 °F 32.8 °F 28.4 °F 75% 30.10 in 1.5 mi NE 3.5 mph - 0.00 in Snow Light Snow
8:07 AM 33.8 °F 29.6 °F 30.2 °F 87% 30.11 in 0.8 mi NE 4.6 mph - 0.00 in Snow Light Snow
8:11 AM 33.8 °F 29.6 °F 30.2 °F 87% 30.11 in 1.0 mi ENE 4.6 mph - 0.00 in Snow Light Snow
8:27 AM 33.8 °F 27.7 °F 30.2 °F 87% 30.10 in 0.8 mi ENE 6.9 mph - 0.00 in Snow Light Snow
8:40 AM 32.0 °F 26.4 °F 30.2 °F 93% 30.09 in 0.5 mi ENE 5.8 mph - 0.00 in Fog , Snow Snow
8:48 AM 32.0 °F 24.8 °F 30.2 °F 93% 30.08 in 1.0 mi ENE 8.1 mph - 0.00 in Snow Light Snow
8:51 AM 32.0 °F 24.8 °F 30.2 °F 93% 30.08 in 1.2 mi ENE 8.1 mph - 0.00 in Snow Light Snow
8:53 AM 32.0 °F 24.8 °F 30.9 °F 96% 30.14 in 1.5 mi ENE 8.1 mph - 0.00 in Snow Light Snow
9:06 AM 33.8 °F 27.7 °F 30.2 °F 87% 30.07 in 3.0 mi ENE 6.9 mph - 0.01 in Snow Light Snow
9:16 AM 33.8 °F 25.3 °F 30.2 °F 87% 30.06 in 6.0 mi ENE 11.5 mph - 0.01 in Snow Light Snow
9:29 AM 33.8 °F 26.4 °F 32.0 °F 93% 30.06 in 9.0 mi ENE 9.2 mph 19.6 mph 0.01 in Snow Light Snow
9:53 AM 34.0 °F 25.5 °F 32.0 °F 92% 30.11 in 8.0 mi ENE 11.5 mph - 0.01 in Snow Light Snow
10:53 AM 34.0 °F 26.0 °F 32.0 °F 92% 30.08 in 7.0 mi NE 10.4 mph - 0.02 in Rain Light Rain
11:53 AM 34.0 °F 26.0 °F 32.0 °F 92% 30.07 in 6.0 mi NE 10.4 mph - 0.02 in Snow Light Snow
12:14 PM 33.8 °F 26.4 °F 30.2 °F 87% 29.99 in 1.8 mi NNE 9.2 mph 17.3 mph 0.01 in Snow Light Snow
12:37 PM 33.8 °F 26.4 °F 30.2 °F 87% 29.99 in 1.2 mi NNE 9.2 mph - 0.05 in Snow Light Snow
12:43 PM 33.8 °F 27.0 °F 30.2 °F 87% 29.98 in 0.8 mi North 8.1 mph - 0.06 in Snow Light Snow
12:53 PM 32.0 °F 24.2 °F 30.9 °F 96% 30.06 in 0.5 mi NNE 9.2 mph - 0.08 in Fog , Snow Snow
1:53 PM 33.1 °F 25.5 °F 30.9 °F 92% 30.06 in 1.0 mi North 9.2 mph - 0.11 in Snow Light Snow
2:16 PM 33.8 °F 25.3 °F 30.2 °F 87% 29.97 in 1.8 mi North 11.5 mph - 0.01 in Snow Light Snow
2:21 PM 33.8 °F 25.3 °F 30.2 °F 87% 29.97 in 3.0 mi North 11.5 mph - 0.01 in Snow Light Snow
2:41 PM 33.8 °F 24.8 °F 30.2 °F 87% 29.97 in 2.5 mi North 12.7 mph - 0.01 in Snow Light Snow
2:53 PM 33.1 °F 24.4 °F 30.9 °F 92% 30.05 in 2.5 mi North 11.5 mph - 0.01 in Snow Light Snow
3:24 PM 33.8 °F 24.8 °F 30.2 °F 87% 29.99 in 1.5 mi North 12.7 mph - 0.00 in Snow Light Snow
3:38 PM 33.8 °F 25.3 °F 30.2 °F 87% 30.00 in 1.0 mi North 11.5 mph - 0.01 in Snow Light Snow
3:44 PM 33.8 °F 24.8 °F 30.2 °F 87% 30.00 in 1.2 mi North 12.7 mph - 0.01 in Snow Light Snow
3:53 PM 33.1 °F 22.6 °F 30.9 °F 92% 30.07 in 1.5 mi North 16.1 mph - 0.01 in Snow Light Snow
4:04 PM 33.8 °F 23.5 °F 30.2 °F 87% 30.00 in 2.5 mi North 16.1 mph 24.2 mph 0.00 in Snow Light Snow
4:07 PM 33.8 °F 23.2 °F 30.2 °F 87% 30.01 in 3.0 mi North 17.3 mph 24.2 mph 0.00 in Snow Light Snow
4:11 PM 33.8 °F 23.5 °F 30.2 °F 87% 30.01 in 2.5 mi North 16.1 mph - 0.00 in Snow Light Snow
4:28 PM 33.8 °F 24.8 °F 30.2 °F 87% 30.02 in 1.8 mi North 12.7 mph 21.9 mph 0.00 in Snow Light Snow
4:31 PM 33.8 °F 25.3 °F 30.2 °F 87% 30.03 in 2.0 mi North 11.5 mph 21.9 mph 0.00 in Snow Light Snow
4:46 PM 33.8 °F 23.2 °F 30.2 °F 87% 30.03 in 1.8 mi North 17.3 mph 23.0 mph 0.00 in Snow Light Snow
4:53 PM 33.1 °F 23.0 °F 30.0 °F 89% 30.10 in 1.5 mi North 15.0 mph - 0.00 in Snow Light Snow
4:59 PM 33.8 °F 24.8 °F 30.2 °F 87% 30.02 in 2.0 mi North 12.7 mph - 0.01 in Snow Light Snow
5:07 PM 33.8 °F 24.8 °F 30.2 °F 87% 30.03 in 2.5 mi North 12.7 mph - 0.01 in Snow Light Snow
5:11 PM 33.8 °F 23.9 °F 30.2 °F 87% 30.03 in 1.8 mi North 15.0 mph 20.7 mph 0.01 in Snow Light Snow
5:24 PM 32.0 °F 22.1 °F 30.2 °F 93% 30.03 in 1.2 mi North 13.8 mph 20.7 mph 0.01 in Snow Light Snow
5:27 PM 32.0 °F 22.5 °F 30.2 °F 93% 30.03 in 1.0 mi North 12.7 mph - 0.01 in Snow Light Snow
5:37 PM 32.0 °F 22.5 °F 30.2 °F 93% 30.04 in 1.8 mi North 12.7 mph - 0.01 in Snow Light Snow
5:43 PM 32.0 °F 23.0 °F 30.2 °F 93% 30.04 in 3.0 mi North 11.5 mph - 0.01 in Snow Light Snow
5:53 PM 32.0 °F 22.5 °F 30.0 °F 92% 30.11 in 4.0 mi North 12.7 mph - 0.01 in Snow Light Snow
6:53 PM 32.0 °F 22.5 °F 30.0 °F 92% 30.14 in 7.0 mi NNW 12.7 mph - 0.00 in   Overcast
7:53 PM 30.9 °F 20.7 °F 28.9 °F 92% 30.15 in 4.0 mi NNW 13.8 mph - 0.00 in Snow Light Snow
8:06 PM 30.2 °F 19.8 °F 28.4 °F 93% 30.09 in 3.0 mi NNW 13.8 mph 21.9 mph 0.00 in Snow Light Snow
8:13 PM 30.2 °F 18.9 °F 28.4 °F 93% 30.09 in 3.0 mi NNW 16.1 mph 21.9 mph 0.00 in Snow Light Snow
8:40 PM 30.2 °F 19.3 °F 28.4 °F 93% 30.10 in 2.5 mi NNW 15.0 mph - 0.00 in Snow Light Snow
8:53 PM 30.9 °F 20.2 °F 28.9 °F 92% 30.18 in 3.0 mi NNW 15.0 mph - 0.00 in Snow Light Snow
9:15 PM 30.2 °F 20.8 °F 28.4 °F 93% 30.11 in 6.0 mi NNW 11.5 mph - 0.00 in   Overcast
9:53 PM 30.9 °F 21.7 °F 28.9 °F 92% 30.20 in 10.0 mi NNW 11.5 mph - 0.00 in   Overcast
10:03 PM 30.2 °F 20.2 °F 28.4 °F 93% 30.13 in 10.0 mi NNW 12.7 mph - N/A   Overcast
10:31 PM 30.2 °F 20.2 °F 28.4 °F 93% 30.13 in 9.0 mi NNW 12.7 mph - 0.00 in Snow Light Snow
10:53 PM 30.9 °F 21.7 °F 28.0 °F 89% 30.19 in 10.0 mi NNW 11.5 mph - 0.00 in   Overcast
11:03 PM 30.2 °F 20.2 °F 28.4 °F 93% 30.13 in 10.0 mi NNW 12.7 mph - N/A   Overcast
11:53 PM 30.0 °F 18.7 °F 28.0 °F 92% 30.20 in 10.0 mi NNW 16.1 mph 20.7 mph N/A   Overcast